Location: Bad Rothenbrunn
(47.2167°N, 11.2167°E)
Time: 18:04:51
(UTC+00:00)

APEX - Pass Details

Date: 03 March 2021
Orbit: 332 x 1080 km, 69.9° (Epoch: 19 April)

Event Time Altitude Azimuth Distance (km) Brightness Sun altitude
Rises 17:37:40 0° 327° (NNW) 2,230 6.9 -6.6°
Reaches altitude 10° 17:39:46 10° 321° (NW) 1,323 5.8 -7.0°
Maximum altitude 17:42:30 48° 246° (WSW) 452 3.4 -7.4°
Drops below altitude 10° 17:45:07 10° 169° (S) 1,265 5.1 -7.9°
Sets 17:47:05 0° 164° (SSE) 2,115 6.2 -8.2°
